Weather in Buzău

Romania     45°09′01″N   26°49′10″E
temp.,
°C
wind,
m/s
gust,
m/s
humid.,
%
clouds,
%
prec.,
mm/h
press.,
hPa
HPBL,
m
16 may, sun
sun1600:00+14wnw1187100 2.6 101128
03:00+13wnw118599 2.9 101012
06:00+13n1182100 0.0 100910
09:00+16ene237397 0.0 1010308
12:00+20ese445854 0.9 10091025
15:00+20se4558100 3.3 1008953
18:00+20sse3349100 0.3 10071547
21:00+15s2276100 0.8 100827
17 may, mon
mon1700:00+15wnw2275100 0.2 100820
03:00+13wnw228055 0.2 100721
06:00+11nw32815 0.0 100629
09:00+17n126324 0.0 1007402
12:00+21s325234 0.0 10061273
15:00+22sw5549100 0.2 10051853
18:00+21ssw5652100 0.0 10031681
21:00+16sw3776100 0.0 1004202
18 may, tue
tue1800:00+15wsw597484 0.0 1004307
03:00+13wsw368742 0.0 1004162
06:00+12nw498480 0.0 1005305
09:00+14wnw916593 0.0 1006960
12:00+18wnw694849 0.3 10071905
15:00+17nw10135081 0.9 1008841
18:00+15wnw10156299 0.0 10101134
21:00+14wnw814597 0.0 1012809
19 may, wed
wed1900:00+13wnw613581 0.0 1012472
03:00+11w49630 0.0 1012167
06:00+9wnw33733 0.0 101233
09:00+15w225758 0.0 1013440
12:00+19s334661 0.0 10121280
15:00+21ssw44402 0.0 10111783
18:00+21sw44437 0.0 10101857
21:00+16s225839 0.0 101013
20 may, thu
thu2000:00+15nw1160100 0.0 101011
03:00+13n2391100 2.4 100975
06:00+13ne1296100 8.1 1007149
09:00+12wnw3683100 11.5 1008485
12:00+12nw3574100 0.4 1008445
15:00+12sse327499 0.5 1008359
18:00+13se2278100 0.1 1007194
21:00+12wnw366798 0.1 1008260